AirNav   Jet Aviation Boston
 
 919 users online  

N06 Laurel Airport
Laurel, Delaware, USA

GOING TO LAUREL?


FAA INFORMATION EFFECTIVE 29 MARCH 2018

Location

FAA Identifier: N06
Lat/Long: 38-32-31.8640N / 075-35-39.6660W
38-32.531067N / 075-35.661100W
38.5421844 / -75.5943517
(estimated)
Elevation: 30.1 ft. / 9 m (estimated)
Variation: 12W (2000)
From city: 1 mile SW of LAUREL, DE
Time zone: UTC -4 (UTC -5 during Standard Time)
Zip code: 19956

Airport Operations

Airport use: Open to the public
Activation date: 12/1946
Control tower: no
ARTCC: WASHINGTON CENTER
FSS: MILLVILLE FLIGHT SERVICE STATION
NOTAMs facility: MIV (NOTAM-D service available)
Attendance: 0800-DUSK
Wind indicator: yes
Segmented circle: no
Lights: ACTVT REIL RY 15 - CTAF.
Beacon: white-green (lighted land airport)
ACTVT ROTG BCN - CTAF.

Airport Communications

CTAF/UNICOM: 122.8
PATUXENT APPROACH: 127.95
POTOMAC APPROACH: 127.2(WHEN NHK APCH CLSD)
PATUXENT DEPARTURE: 127.95
POTOMAC DEPARTURE: 127.2(WHEN NHK APCH CLSD)
WX ASOS at SBY (13 nm S): 118.325 (410-341-0868)
WX ASOS at GED (14 nm NE): 118.375 (302-856-2927)
  • APCH/DEP SVC PRVDD BY POTOMAC TRACON ON 127.2/281.47 WHEN PATUXENT APCH CTL CLSD.

Nearby radio navigation aids

VOR radial/distance  VOR name  Freq  Var
SBYr354/12.5SALISBURY VORTAC111.2012W
ATRr237/24.1WATERLOO VOR/DME112.6009W
SWLr356/29.8SNOW HILL VORTAC112.4008W

 
NDB name  Hdg/Dist  Freq  Var  ID
CAMBRIDGE099/20.535510WCGE -.-. --. .

Airport Services

Parking: hangars and tiedowns
Airframe service: MAJOR
Powerplant service: MAJOR
Bottled oxygen: NONE
Bulk oxygen: NONE

Runway Information

Runway 15/33

Dimensions: 3175 x 270 ft. / 968 x 82 m
Surface: turf, in good condition
Runway edge markings: RY 33 DSPLCD THLD MKD WITH 3 LARGE ORANGE CONES EACH SIDE.
RUNWAY 15  RUNWAY 33
Latitude: 38-32.730683N38-32.351717N
Longitude: 075-35.874700W075-35.415167W
Elevation: 28.9 ft.30.1 ft.
Gradient: 0.3%0.3%
Traffic pattern: leftleft
Runway heading: 148 magnetic, 136 true328 magnetic, 316 true
Displaced threshold: no270 ft.
Runway end identifier lights: yesno
Touchdown point: yes, no lightsyes, no lights
Obstructions: 55 ft. trees, 140 ft. from runway, 60 ft. right of centerline, 2:1 slope to clear53 ft. tree, 10 ft. from runway, 167 ft. right of centerline, 1:1 slope to clear
RY 33 APCH SLOPE 20:1 TO DSPLCD THLD.

Airport Ownership and Management from official FAA records

Ownership: Privately-owned
Owner: DEST INC
106 STUART DRIVE
DOVER, DE 19901
Phone 302-697-6020
DEST INC PRESIDENT IS DONNA ATKINS, SECRETARY IS DIANE BOYCE.
Manager: DAVE MATCHETT
32524 AERO DRIVE
LAUREL, DE 19956
Phone (302) 875-3540
ACFT INSPECTION AND MAINTENANCE INC OWNER IS MR. ROB COLLINS.

Airport Operational Statistics

Aircraft based on the field: 14
Single engine airplanes: 13
Multi engine airplanes: 1
    
Aircraft operations: avg 27/day *
81% local general aviation
19% transient general aviation
* for 12-month period ending 30 November 2014

Additional Remarks

SIGNIFICANT SKY-DIVING OPERATION SEASONAL TO ALL BUT WINTER MONTHS.
FOR CD WHEN NHK APCH IS CLSD CTC POTOMAC APCH AT 866-640-4124.

Instrument Procedures

NOTE: All procedures below are presented as PDF files. If you need a reader for these files, you should download the free Adobe Reader.

NOT FOR NAVIGATION. Please procure official charts for flight.
FAA instrument procedures published for use from 29 March 2018 at 0901Z to 26 April 2018 at 0900Z.

 
IAPs - Instrument Approach Procedures
RNAV (GPS)-A **CHANGED**   download (153KB)
NOTE: Special Take-Off Minimums/Departure Procedures apply   download (140KB)

Other nearby airports with instrument procedures:

KSBY - Salisbury-Ocean City Wicomico Regional Airport (13 nm S)
KGED - Delaware Coastal Airport (14 nm NE)
KCGE - Cambridge-Dorchester Regional Airport (20 nm W)
KOXB - Ocean City Municipal Airport (26 nm SE)
KESN - Easton/Newnam Field Airport (27 nm NW)
 
Loc | Ops | Rwys | IFR | FBO | Links
Com | Nav | Svcs | Stats | Notes

AirNav Hotels Sweepstakes
 
Area around N06 (Laurel Airport)
 
Road maps at: MapQuest Bing Google
 
Aerial photo
WARNING: Photo may not be current or correct
Aerial photo of N06 (Laurel Airport)
Photo taken 21-Jul-2006

Do you have a better or more recent aerial photo of Laurel Airport that you would like to share? If so, please send us your photo.

 
Sectional chart

 
Airport distance calculator
Flying to Laurel Airport? Find the distance to fly.

From to N06

Sunrise and sunset
Times for 25-Apr-2018
 Local
(UTC-4)
 Zulu
(UTC)
Morning civil twilight05:4609:46
Sunrise06:1410:14
Sunset19:4723:47
Evening civil twilight20:1500:15

Current date and time
Zulu (UTC)  26-Apr-2018 02:09:18
Local (UTC-4)  25-Apr-2018 22:09:18
 
METAR
KSBY 
13nm S 
260203Z 28009KT 1 3/4SM +RA BR BKN011 OVC016 17/16 A2970 RMK AO2 LTG DSNT N P0010 T01670161
KGED 
14nm NE 
260154Z AUTO 00000KT 8SM -RA SCT022 OVC046 17/16 A2969 RMK AO2 SLP051 P0003 T01670156
KCGE 
20nm W 
260155Z AUTO 30009KT 10SM SCT022 BKN029 OVC035 16/15 A2972 RMK A01
KOXB 
26nm SE 
260201Z AUTO 26005KT 8SM -RA SCT018 BKN047 OVC055 17/16 A2968 RMK AO2 P0000 T01670156
TAF
KSBY 
13nm S 
252145Z 2522/2618 26012KT P6SM VCSH BKN080 FM260300 29007KT P6SM BKN025 FM260600 30008KT P6SM SCT025 FM260900 30007KT P6SM SCT200
NOTAMs
Click for the latest NOTAMs
NOTAMs are issued by the DoD/FAA and will open in a separate window not controlled by AirNav.

 

 
 

Would you like to see your business listed on this page?

 If your business provides an interesting product or service to pilots, flight crews, aircraft, or users of the Laurel Airport, you should consider listing it here.  To start the listing process, click on the button below
 
Add a business
 

Other Pages about Laurel Airport

Update a link
 
Copyright © AirNav, LLC. All rights reserved. Privacy Policy  Contact